HUERBEL Weather Reports


time (UTC)temp
C
wind
direction
speed
KPH
gust
KPH
rain 1hr
cm
rain 24hr
cm
rain mn
cm
humidity
%
barometer
mb
20260507143212 14 259 16.1 0.0 0.00 0.00 0.13 66 1016.0
20260507140210 13 253 19.3 0.0 0.00 0.00 0.13 70 1016.0
20260507133210 13 268 14.5 0.0 0.00 0.00 0.13 69 1016.2
20260507130210 12 350 17.7 0.0 0.00 0.00 0.13 71 1016.1
20260507123210 12 286 11.3 0.0 0.00 0.00 0.13 78 1016.0
20260507120211 11 311 4.8 0.0 0.00 0.00 0.13 84 1016.1
20260507113210 10 344 6.4 0.0 0.00 0.00 0.13 84 1016.2
20260507110210 10 281 3.2 0.0 0.00 0.00 0.10 84 1016.1
20260507103216 11 336 16.1 0.0 0.00 0.00 0.05 78 1016.2
20260507100212 11 190 11.3 0.0 0.00 0.00 0.05 78 1016.1
20260507093210 11 242 17.7 0.0 0.00 0.00 0.05 78 1015.9
20260507090211 10 277 20.9 0.0 0.00 0.00 0.05 80 1015.7
20260507083212 10 232 22.5 0.0 0.00 0.00 0.05 83 1015.4
20260507080211 10 229 20.9 0.0 0.00 0.00 0.05 83 1015.3
20260507073212 9 196 17.7 0.0 0.00 0.00 0.05 84 1015.0
20260507070212 9 248 20.9 0.0 0.00 0.00 0.03 82 1014.7
20260507063211 10 275 17.7 0.0 0.00 0.00 0.00 81 1014.5
20260507060211 9 236 20.9 0.0 0.00 0.00 0.00 82 1014.2
20260507053211 9 211 19.3 0.0 0.00 0.00 0.00 82 1014.0
20260507050213 8 242 20.9 0.0 0.00 0.00 0.00 82 1013.7
20260507043211 8 248 22.5 0.0 0.00 0.00 0.00 80 1013.3
20260507040216 8 250 22.5 0.0 0.00 0.00 0.00 80 1012.9
20260507033211 8 263 25.7 0.0 0.00 0.00 0.00 80 1012.5
20260507030211 8 283 24.1 0.0 0.00 0.00 0.00 81 1012.4
20260507023211 8 246 16.1 0.0 0.00 0.00 0.00 81 1012.4
20260507020211 8 229 19.3 0.0 0.00 0.00 0.00 82 1012.1
20260507013212 8 236 24.1 0.0 0.00 0.00 0.00 83 1011.9
20260507010211 8 242 17.7 0.0 0.00 0.00 0.00 84 1012.0
20260507003209 8 263 11.3 0.0 0.00 0.00 0.00 83 1012.1
20260507000209 8 199 11.3 0.0 0.00 0.00 0.00 83 1012.1
20260506233209 8 269 6.4 0.0 0.00 0.00 0.00 83 1012.1
20260506230209 8 225 11.3 0.0 0.00 0.00 0.00 83 1011.8
20260506223209 8 232 14.5 0.0 0.00 0.00 0.00 83 1011.7
20260506213209 9 221 14.5 0.0 0.00 0.00 0.15 82 1011.4
20260506210210 9 200 14.5 0.0 0.00 0.00 0.15 82 1011.2
20260506203210 10 209 14.5 0.0 0.00 0.00 0.15 82 1011.3
20260506200210 10 243 14.5 0.0 0.00 0.00 0.15 82 1011.2
20260506193215 10 227 16.1 0.0 0.00 0.00 0.15 81 1010.7
20260506190211 10 238 22.5 0.0 0.00 0.00 0.15 80 1010.3
20260506183209 10 217 19.3 0.0 0.00 0.00 0.15 80 1010.0
20260506180216 10 296 19.3 0.0 0.00 0.00 0.15 81 1009.8
20260506173210 10 242 24.1 0.0 0.00 0.00 0.15 80 1009.3
20260506170215 10 262 24.1 0.0 0.00 0.00 0.15 80 1008.7
20260506163210 10 302 16.1 0.0 0.00 0.00 0.15 83 1008.8
20260506160210 10 259 33.8 0.0 0.00 0.00 0.15 81 1008.6
20260506153210 11 231 41.8 0.0 0.00 0.00 0.15 82 1008.2
20260506150210 16 221 41.8 0.0 0.00 0.00 0.08 66 1007.2